Regional Weather Roundup
Issued by NWS

Home | Current Version | Previous Version | Graphics & Text | Print | Product List | Glossary On
Versions: 1 2 3 4 5 6 7 8 9 10 11 12 13 14 15 16 17 18 19 20 21 22 23 24 25 26 27 28 29 30 31 32 33 34 35 36 37 38 39 40 41 42 43 44 45 46 47 48 49 50
000
ASUS43 KIND 282109
RWRIN

WEATHER ROUNDUP FOR INDIANA
NATIONAL WEATHER SERVICE INDIANAPOLIS IN
500 PM EDT MON JUL 28 2014

NOTE: "FAIR" INDICATES FEW OR NO CLOUDS BELOW 12,000 FEET WITH NO
SIGNIFICANT WEATHER AND/OR OBSTRUCTIONS TO VISIBILITY.

* - STATION DOES NOT REPORT WEATHER SUCH AS PRECIPITATION OR FOG.

+ - STATION NOT QUALITY CONTROLLED BY THE NATIONAL WEATHER SERVICE.
    USE DATA WITH CAUTION...ESPECIALLY DEWPOINT AND RELATIVE
    HUMIDITY OBSERVATIONS.

INZ001>003-010>013-019-020-282200-
NORTHWEST INDIANA

CITY           SKY/WX    TMP DP  RH WIND       PRES   REMARKS
GARY /AIRPORT/ MOSUNNY   66  48  52 N21G32    30.11R
KNOX *+        MOSUNNY   64  49  58 NW14G21   30.06F
LA PORTE +     SUNNY     62  50  65 NW17G23   30.08S
MICHIGAN CITY+ SUNNY     61  48  63 NW9G23    30.08S
MONTICELLO +   SUNNY     67  52  58 NW14G20   30.06R
RENSSELAER +   SUNNY     64  46  52 N12G23    30.09S
VALPARAISO     SUNNY     64  47  53 N16G23    30.08S

$$

LMZ046-743>745-282200-
SOUTHERN LAKE MICHIGAN

STATION/POSITION TIME  TEMP WIND        PRES
                       AIR  DIR/SP/G
                 (UTC) (F)  (DEG/KT/KT) (MB)
MICHIGAN CITY    2100   61  330/ 22/ 26   N/A

$$

INZ004-005-014>016-021>024-282200-
NORTH CENTRAL INDIANA

CITY           SKY/WX    TMP DP  RH WIND       PRES   REMARKS
ELKHART        PTSUNNY   63  46  55 NW12G17   30.04
GOSHEN         MOSUNNY   64  51  62 NW15G22   30.03S
LOGANSPORT +   PTSUNNY   64  50  59 NW12G17   30.06S
PERU/GRISSOM   MOSUNNY   66  54  66 NW14      30.04S
ROCHESTER +    MOSUNNY   68  50  52 NW13G21   30.05S
SOUTH BEND     PTSUNNY   62  46  55 NW15G25   30.05S
WARSAW +       CLOUDY    64  50  59 NW13G22   30.03F

$$

INZ006>009-017-018-025>027-282200-
NORTHEAST INDIANA

CITY           SKY/WX    TMP DP  RH WIND       PRES   REMARKS
ANGOLA *+      CLOUDY    70  61  73 NW10      29.98S
AUBURN +       MOSUNNY   70  52  52 W16G22    30.00R
FORT WAYNE     MOSUNNY   69  55  60 W17G23    30.00R
HUNTINGTON +   MOSUNNY   65  54  68 NW13G18   30.02R

$$

INZ028-029-035-036-043>045-051>053-282200-
WEST CENTRAL INDIANA

CITY           SKY/WX    TMP DP  RH WIND       PRES   REMARKS
GREENCASTLE +  PTSUNNY   70  55  60 N14       30.05S
LAFAYETTE      MOSUNNY   70  50  49 N14G24    30.06S
TERRE HAUTE    PTSUNNY   74  55  51 NW13      30.04S

$$

INZ030>032-037>040-046>048-054>057-064-065-282200-
CENTRAL INDIANA

CITY           SKY/WX    TMP DP  RH WIND       PRES   REMARKS
CP ATTERBURY + PTSUNNY   72  55  56 NW9       30.01F HAZE
COLUMBUS       PTSUNNY   73  61  64 W9        30.01F
INDIANAPOLIS   MOSUNNY   70  54  56 NW16G26   30.03R
-EAGLE CREEK   MOSUNNY   70  53  54 N14G24    30.03R
KOKOMO *+      PTSUNNY   66  54  63 NW14      30.05S
MARION +       PTSUNNY   65  53  64 N12G22    30.04R
MT COMFORT *+  MOSUNNY   72  61  68 N17G24    30.03S
SHELBYVILLE    PTSUNNY   72  56  57 N15       30.01R
ZIONSVILLE +   MOSUNNY   69  53  57 N15       30.06R

$$

INZ033-034-041-042-049-050-058-059-282200-
EAST CENTRAL INDIANA

CITY           SKY/WX    TMP DP  RH WIND       PRES   REMARKS
MUNCIE         MOSUNNY   69  56  62 NW18G24   30.01R

$$

INZ060-061-067>069-081>083-085>088-282200-
SOUTHWEST INDIANA

CITY           SKY/WX    TMP DP  RH WIND       PRES   REMARKS
EVANSVILLE     PTSUNNY   78  58  49 N12G21    30.03S
WASHINGTON +   PTSUNNY   74  59  60 NW14      30.02F

$$

INZ062-063-066-070>080-084-089>092-282200-
SOUTH CENTRAL AND SOUTHEAST INDIANA

CITY           SKY/WX    TMP DP  RH WIND       PRES   REMARKS
BEDFORD +      PTSUNNY   73  54  49 NW8G20    30.02
BLOOMINGTON    PTSUNNY   73  57  57 VRB7      30.02S
NORTH VERNON + MOSUNNY   72  59  64 N5        30.01

$$




USA.gov is the U.S. government's official web portal to all federal, state and local government web resources and services.